Wind_Speed
19 19 19 18 18 18 18 18 19 18 18 18 18 18 17 16 15 14 14 13 12 12 12 11 10 8 8 7 6 6 5 4 3 2 2 3 4 5 4 2 2 2 2 2 2 4 6 8 10 12 13 13 17 20 23 26 27 26 27 28 28 27 27 26 23 21 19 16 15 17 17 20 24 21 21 19 11 15 15 22 23 20 19 16 18 17 17 19
20 19 19 19 18 18 18 19 19 19 19 18 19 18 17 16 15 14 14 13 13 12 11 11 9 8 7 6 5 5 4 3 2 3 2 0 2 4 1 1 1 1 2 2 2 2 5 8 10 12 13 11 12 16 20 24 26 27 28 27 25 26 27 27 25 23 22 19 20 22 20 22 25 22 22 19 13 13 11 19 23 21 20 15 18 20 20 20
20 19 19 19 19 18 18 19 19 19 19 19 19 18 17 16 15 14 14 13 12 12 11 10 8 7 6 5 4 3 3 4 3 2 1 1 2 1 2 1 1 2 3 3 4 6 7 9 10 12 13 10 6 10 16 20 24 26 26 25 23 22 22 22 24 25 22 20 22 26 24 24 25 22 20 17 16 15 8 15 23 23 22 16 18 22 21 21
20 20 20 20 20 19 19 19 19 19 19 20 19 18 17 15 15 14 14 13 12 11 10 9 7 6 5 4 3 2 3 4 3 2 1 1 1 3 4 1 1 2 3 4 4 6 8 8 9 9 8 7 6 6 11 16 23 27 26 24 21 19 17 15 16 19 20 21 25 28 27 27 26 22 18 15 16 13 4 11 15 17 19 17 18 22 23 22
21 21 21 20 20 19 19 19 19 19 19 20 19 17 16 15 14 14 14 12 11 10 9 8 7 5 3 3 3 2 3 4 4 3 2 2 3 5 4 2 1 2 3 3 3 4 7 6 5 4 1 2 5 5 6 9 16 23 25 25 24 21 19 15 12 13 16 21 27 29 29 28 27 23 18 15 12 8 3 6 8 12 17 19 19 22 23 23
21 21 21 21 21 20 19 19 19 19 20 19 18 17 16 15 14 14 13 12 11 9 8 7 5 4 2 2 2 4 4 3 4 4 3 4 5 5 4 3 1 3 4 6 6 7 11 11 8 3 1 0 4 5 4 4 9 16 19 20 21 20 21 19 15 15 18 21 26 29 30 29 28 25 21 17 11 6 5 3 4 8 16 23 23 24 24 22
22 22 21 21 21 20 19 19 19 20 20 19 17 16 15 15 14 13 13 11 10 8 7 6 4 2 1 1 3 5 4 3 5 3 3 6 5 6 4 3 2 3 5 8 8 9 13 11 4 1 2 2 5 7 7 7 9 14 15 13 13 15 18 19 17 18 20 22 24 28 31 30 29 28 25 21 13 8 6 3 1 3 11 23 28 29 27 22
22 22 22 21 21 20 19 19 20 20 20 18 17 16 15 14 13 13 12 10 9 7 6 5 2 1 0 2 3 4 3 3 4 3 5 7 5 5 4 2 1 2 4 7 8 10 11 7 3 2 6 8 8 8 6 7 6 6 11 15 15 15 16 18 19 20 21 23 24 27 31 32 30 29 30 25 17 14 10 6 3 3 2 14 27 33 32 27
22 22 22 21 20 20 19 19 20 21 20 18 16 16 15 14 13 12 11 9 8 7 5 3 1 0 1 3 4 5 5 4 6 5 7 7 6 5 4 3 2 1 2 5 8 11 8 5 6 4 9 12 11 10 7 7 6 2 6 12 15 14 14 16 19 20 20 23 23 25 29 32 33 31 32 28 21 18 13 8 4 2 1 3 13 29 32 30
22 22 21 20 20 19 18 19 20 21 19 17 16 15 15 14 13 12 10 8 6 6 4 2 0 1 1 4 6 8 6 5 8 9 6 6 7 8 7 6 4 1 3 6 9 12 8 6 9 8 10 12 12 12 9 7 8 7 8 9 11 13 14 15 19 21 21 23 24 25 28 31 34 33 33 30 24 21 15 11 7 2 2 6 5 16 27 32
22 22 21 20 19 18 18 19 20 20 19 17 16 15 15 14 12 11 8 6 5 4 3 1 1 0 2 5 7 9 10 8 7 9 7 5 6 7 8 8 5 3 2 3 8 12 9 9 11 10 9 10 12 12 12 10 9 10 12 12 12 13 15 16 20 22 23 25 25 26 29 32 34 36 37 34 28 25 21 16 12 8 3 2 5 7 17 28
22 22 21 20 19 18 18 18 19 19 18 17 15 15 14 13 12 10 7 5 4 3 2 1 1 0 3 7 8 11 14 12 8 9 9 7 5 4 6 5 5 6 6 5 5 11 8 9 10 8 8 11 12 12 12 10 9 10 11 14 15 15 16 17 19 21 23 25 25 23 27 30 31 33 33 35 36 31 27 23 19 16 9 5 8 11 11 18
23 22 21 20 19 18 18 18 19 19 18 16 15 15 14 12 11 8 6 5 3 1 1 3 3 3 5 8 12 12 13 12 10 11 12 9 6 4 6 5 7 8 10 10 1 7 7 9 9 8 8 11 11 10 10 8 8 8 8 12 15 17 19 19 17 19 20 19 19 20 25 27 21 17 15 22 40 40 33 30 25 21 17 12 14 18 15 15
22 22 21 20 18 17 17 18 19 19 18 16 15 14 13 11 9 7 5 4 2 2 3 6 8 7 7 10 12 10 10 10 8 12 15 12 9 9 12 12 10 8 8 8 6 4 7 8 10 8 6 7 8 10 10 7 7 7 8 10 11 14 16 12 9 14 15 10 11 17 24 25 14 6 7 10 28 40 38 37 32 27 24 19 17 18 17 14
22 22 21 20 18 17 17 18 19 19 17 15 14 14 12 10 7 6 5 4 3 3 4 6 8 9 9 9 11 8 8 8 6 12 16 15 11 8 11 12 11 8 7 5 6 8 10 11 10 7 6 5 5 7 9 8 6 3 7 9 8 13 14 10 11 14 13 9 8 16 24 24 14 6 5 10 10 23 29 34 35 33 29 21 15 15 15 11
22 22 22 21 18 17 17 18 19 18 17 15 14 13 11 9 6 4 4 4 4 5 4 6 6 8 8 8 9 8 7 5 5 9 13 15 10 4 7 7 9 10 10 7 6 8 10 10 9 8 7 7 7 6 6 6 3 2 7 12 12 14 16 17 15 12 10 12 12 13 22 27 21 14 9 9 10 11 15 21 28 33 32 23 13 11 13 12
22 21 21 21 19 17 17 18 19 18 16 14 13 12 11 9 6 2 2 4 5 6 5 5 5 5 6 8 9 8 7 4 6 7 9 12 7 6 8 4 6 10 9 7 6 8 8 8 9 8 6 6 8 8 6 5 5 8 11 15 15 13 15 17 15 12 11 14 12 9 12 20 22 21 14 10 12 14 14 13 15 25 31 24 14 10 11 14
22 21 20 21 19 17 18 19 19 18 16 14 14 12 9 9 8 4 2 3 5 5 3 3 4 4 4 6 8 10 9 5 9 7 6 8 4 6 8 5 8 10 6 4 5 7 6 6 8 6 5 6 8 8 6 8 9 12 16 17 16 15 16 16 16 15 14 14 11 8 8 11 14 18 17 14 15 16 16 15 13 15 22 23 17 13 11 13
23 21 20 20 18 17 18 19 20 19 17 15 14 13 9 7 8 5 4 2 4 4 4 3 1 2 3 5 8 11 11 6 7 7 5 3 3 5 6 6 9 9 6 5 4 6 5 6 8 8 8 8 7 7 6 8 10 14 17 16 14 16 17 15 15 14 14 15 12 9 10 10 10 12 14 14 14 14 17 17 17 15 15 19 18 16 13 12
23 21 20 19 17 17 18 20 21 19 17 16 15 14 8 5 6 5 6 5 5 6 6 2 3 4 4 5 6 9 10 4 4 7 4 2 5 8 6 5 7 7 7 8 8 9 9 10 10 11 11 10 9 8 6 7 10 12 14 11 12 16 17 15 14 12 13 14 12 12 14 14 13 13 10 9 9 12 14 16 18 18 16 17 19 19 16 14
23 21 20 18 17 17 19 21 21 19 18 17 17 13 7 4 6 8 6 4 6 7 6 2 6 5 4 5 6 7 4 2 2 3 3 6 8 8 8 7 6 7 6 7 10 11 12 14 13 13 14 13 11 10 5 5 8 8 10 12 15 18 18 17 14 11 12 12 12 14 16 15 15 15 12 9 10 12 14 14 16 20 21 20 20 21 18 15
23 22 20 18 17 17 20 21 20 19 17 17 17 12 8 8 8 10 9 2 2 5 7 4 4 3 3 6 8 7 4 2 1 3 5 7 8 7 8 7 6 7 7 7 8 10 11 11 10 9 11 13 13 11 7 6 9 9 10 13 15 17 18 17 14 10 10 12 14 15 16 17 16 17 16 13 13 13 14 15 16 19 23 23 23 25 21 16
22 22 20 18 17 17 20 20 19 18 17 17 16 11 9 9 7 9 10 5 1 4 5 4 4 3 2 4 6 5 5 5 3 3 3 5 8 8 8 7 7 7 7 7 8 10 12 9 5 5 5 9 12 10 8 9 9 9 11 13 15 15 13 13 12 10 9 11 14 14 15 18 16 15 16 15 16 16 16 17 17 18 22 24 25 27 23 17
22 22 21 18 17 18 19 19 18 16 16 16 13 10 10 9 8 7 8 4 0 3 4 3 3 2 3 1 5 5 5 6 4 4 5 8 9 10 10 8 7 5 5 6 7 11 12 10 7 4 5 6 8 6 5 7 8 9 12 13 15 13 10 11 11 12 13 10 8 11 14 16 14 13 13 13 14 16 18 20 20 21 24 26 26 26 24 20
22 21 21 18 16 18 19 19 17 16 16 14 11 10 9 9 8 6 6 3 2 5 5 4 3 1 4 6 7 8 6 7 6 6 5 7 8 10 11 6 4 3 5 6 7 11 11 8 6 4 5 7 6 4 4 8 11 12 12 11 12 12 11 12 10 10 13 9 4 9 11 9 10 12 15 15 14 15 17 18 21 23 25 28 28 25 25 23
22 20 20 18 16 17 19 18 16 16 15 12 10 10 8 7 5 5 4 3 3 6 4 2 4 1 5 7 8 8 6 6 6 5 5 5 8 10 8 4 3 4 6 9 10 10 9 7 6 6 7 8 7 6 7 9 11 11 11 9 8 9 10 10 9 8 10 10 9 7 7 7 8 11 13 13 13 13 16 17 19 24 25 27 27 25 25 26
23 20 19 19 18 17 18 18 16 14 12 8 8 9 8 6 3 4 3 3 3 5 3 1 1 3 7 3 3 5 4 5 6 5 6 7 9 10 8 6 4 4 8 11 11 9 8 6 6 7 9 9 8 7 9 9 10 12 13 11 9 8 9 10 10 10 10 12 13 11 9 9 6 7 9 8 11 9 9 11 13 19 24 24 24 25 27 27
24 21 19 19 18 18 18 16 14 11 9 6 6 7 6 3 2 3 2 2 3 5 4 3 3 3 3 4 3 2 2 6 7 6 6 8 10 10 9 7 6 7 8 10 12 12 11 8 6 7 8 6 6 6 7 8 9 11 9 8 9 8 10 12 12 12 11 11 11 11 8 6 2 5 8 7 7 2 2 2 4 9 20 23 22 26 29 28
23 21 19 18 19 19 17 13 11 8 6 6 6 5 3 1 3 2 1 2 3 4 3 2 2 2 1 3 3 2 3 5 5 6 7 8 9 9 10 8 8 9 9 10 11 11 12 12 11 10 7 4 5 6 6 6 6 6 5 4 6 8 10 12 12 13 10 6 8 11 8 4 1 5 6 6 5 7 10 6 6 4 11 18 17 23 29 29
23 21 18 18 18 17 14 11 9 7 6 6 5 3 1 3 2 1 2 3 3 2 1 1 2 3 3 5 3 2 2 3 3 5 5 6 8 8 10 9 9 9 9 9 9 10 13 12 10 10 7 3 7 6 4 4 5 7 7 7 7 8 9 10 11 11 7 4 6 8 6 3 1 7 7 5 8 8 12 14 12 9 7 17 16 18 24 27
21 20 17 18 17 15 12 10 8 6 5 5 3 1 1 3 4 2 1 2 3 2 1 1 4 7 8 7 2 3 4 4 4 5 4 5 6 6 7 7 8 9 8 8 8 9 8 5 5 7 7 5 7 6 2 4 7 8 9 10 8 7 6 5 5 5 3 2 3 2 5 3 3 7 6 3 2 3 8 20 19 15 11 15 15 17 22 25
19 18 17 18 15 13 13 11 8 5 4 3 1 2 2 3 5 6 3 2 2 3 3 3 5 7 5 4 3 5 7 4 3 4 4 4 3 4 5 6 9 9 9 9 11 11 5 2 4 7 6 5 6 6 2 2 3 7 7 8 6 2 3 2 1 1 2 3 2 0 5 7 8 8 4 2 2 6 8 25 25 21 20 19 17 16 18 20
17 15 16 16 13 12 14 12 8 6 4 2 0 4 6 5 5 6 5 3 3 2 4 5 6 4 4 4 4 6 6 3 3 3 4 3 2 2 3 4 6 6 8 10 12 11 5 1 3 7 7 5 3 5 4 2 5 6 3 5 4 1 2 1 2 1 2 5 4 1 2 5 10 7 3 2 2 6 7 22 25 20 19 22 23 17 11 8
15 14 15 14 11 12 14 11 8 5 3 1 1 5 8 7 5 6 7 7 5 5 7 9 7 2 2 3 4 5 4 3 4 3 2 1 2 2 2 4 5 4 7 8 7 8 5 2 1 3 4 6 3 3 3 5 6 2 1 1 2 2 1 1 2 2 2 6 5 1 2 7 9 6 4 2 1 7 8 19 23 20 16 18 21 19 17 16
14 13 13 11 9 11 13 10 7 5 2 1 3 6 8 7 6 8 9 10 10 11 9 6 3 1 2 3 4 5 5 4 5 3 1 2 1 2 3 4 5 6 6 5 5 6 3 2 1 2 1 6 6 1 4 7 3 1 1 3 1 2 3 2 3 3 3 3 5 4 8 9 11 10 9 6 8 12 15 18 20 18 15 14 14 14 15 15
13 12 11 8 7 10 10 8 7 5 3 3 3 6 8 6 6 8 9 11 13 12 7 2 2 4 4 3 3 5 6 6 4 3 3 3 2 1 1 3 6 9 8 6 7 5 3 3 4 6 6 10 8 3 4 7 4 3 3 2 2 4 5 3 3 2 2 1 3 6 11 11 9 7 7 6 10 19 22 18 17 18 17 15 13 10 9 10
12 12 10 7 8 9 7 6 5 3 5 5 4 6 7 5 6 8 10 13 12 9 5 2 4 5 4 3 4 5 7 6 5 7 5 3 3 3 1 3 6 9 10 8 7 6 5 5 6 7 7 10 10 6 5 8 8 7 5 4 3 3 4 4 3 1 2 2 3 6 9 9 6 3 4 5 7 18 21 17 14 15 16 16 14 12 9 7
11 11 10 8 8 8 5 4 3 4 6 6 6 7 6 3 4 8 11 14 11 7 5 1 4 3 3 4 5 7 7 6 7 8 5 4 4 1 3 2 6 9 10 9 6 6 6 4 4 4 5 7 9 9 8 7 9 9 6 4 3 3 4 4 2 1 2 1 2 4 6 7 6 7 10 11 13 17 17 13 11 11 13 12 11 10 8 6
10 11 10 10 10 8 6 3 4 6 6 5 4 5 3 1 6 11 12 13 10 5 3 1 1 2 4 5 6 6 6 6 8 7 4 5 5 3 3 2 7 9 10 11 7 4 5 3 3 4 5 4 3 3 5 5 6 8 6 4 4 3 3 3 2 1 2 2 1 2 2 4 5 7 9 14 16 14 11 10 9 8 8 8 6 5 4 3
10 9 10 11 10 8 8 4 3 3 5 5 4 3 2 3 9 13 10 10 9 6 4 3 3 3 4 5 6 6 6 5 7 6 4 6 6 5 4 5 6 10 13 12 8 4 4 3 3 5 4 3 4 5 4 0 3 5 6 5 3 2 4 4 2 2 3 4 3 2 1 2 3 4 5 8 10 8 6 7 7 6 6 5 4 2 1 0
9 8 8 10 7 6 7 3 2 3 1 4 4 4 3 4 8 10 7 7 7 6 7 6 4 5 6 6 6 7 7 5 5 6 3 7 8 7 7 7 7 11 15 12 6 4 4 3 3 2 2 5 6 6 5 1 2 3 5 5 3 1 4 4 2 3 4 5 5 5 2 0 1 2 2 3 3 4 6 5 4 4 6 6 7 7 6 4
8 6 6 7 5 5 6 1 4 3 2 2 3 4 3 4 7 7 4 5 6 6 9 7 5 6 6 6 7 8 7 4 5 8 6 8 8 7 7 7 7 11 15 11 5 5 4 5 5 2 5 7 7 6 6 5 3 4 6 7 5 4 4 3 2 4 6 7 8 8 5 2 2 1 1 1 4 7 10 9 8 8 8 8 9 10 10 9
6 5 5 5 4 5 5 1 4 3 3 3 3 3 4 4 6 7 5 6 6 5 7 5 4 6 5 4 7 9 7 4 4 7 6 4 5 7 6 6 6 10 14 12 7 5 5 6 5 4 5 6 6 5 6 6 5 5 5 5 5 3 3 4 4 6 7 7 10 8 3 4 6 3 2 4 7 10 11 10 10 10 10 10 11 11 11 11
6 4 4 5 4 4 4 0 1 3 5 5 3 3 4 4 5 7 5 5 6 4 5 5 4 5 5 5 8 8 6 4 3 7 6 2 4 6 5 6 6 9 13 13 10 6 6 6 4 4 5 4 2 2 2 3 4 5 4 4 4 2 2 4 5 6 5 5 9 7 3 7 8 3 2 4 7 7 8 9 10 11 11 11 11 12 12 12
6 3 4 4 4 4 4 2 2 3 6 7 3 3 3 3 4 5 6 5 5 4 5 5 5 6 5 7 8 6 4 4 4 6 7 4 4 5 4 6 7 9 13 14 12 9 7 7 4 3 4 3 2 2 5 6 4 3 1 3 5 5 5 6 6 6 4 4 8 8 8 11 9 3 3 3 4 4 5 7 8 10 11 11 12 13 14 13
6 4 4 5 5 6 4 3 3 4 6 8 4 3 1 2 2 4 6 6 6 5 5 5 5 6 6 6 6 3 2 3 3 4 5 6 5 6 4 4 6 9 12 13 12 10 7 9 8 7 9 10 9 9 10 10 9 5 3 2 3 5 7 8 7 6 6 7 8 7 9 13 10 5 5 5 5 5 5 6 8 10 11 10 11 12 13 14
7 5 4 4 5 5 5 5 6 7 7 7 5 4 4 2 4 5 5 5 6 6 5 3 3 4 4 6 6 3 2 2 2 2 5 7 7 7 6 2 5 6 10 14 13 9 6 10 9 9 12 13 11 11 10 9 9 7 5 4 2 3 5 7 7 8 10 9 7 7 8 9 8 6 5 6 6 6 6 7 9 10 8 8 9 10 11 11
8 7 5 4 5 6 7 9 10 8 8 8 5 3 5 2 4 5 3 5 7 7 6 3 3 3 4 6 8 5 3 2 3 2 3 7 6 5 5 4 5 6 10 14 12 8 6 9 9 7 9 10 9 9 8 6 8 7 5 5 4 3 3 5 7 9 11 9 8 10 10 7 7 6 5 5 5 5 5 7 10 9 7 7 8 9 9 9
8 7 6 5 6 7 8 8 7 6 5 5 3 3 4 1 4 5 5 8 10 8 6 4 4 4 5 9 10 8 6 4 3 2 2 5 4 4 4 5 7 8 10 12 10 6 6 8 8 6 6 6 6 7 5 5 8 8 5 4 3 3 3 4 6 7 9 8 8 9 8 5 5 4 3 3 4 5 5 7 9 9 7 8 8 8 9 9
8 6 6 6 7 8 7 6 5 5 3 3 3 4 4 0 4 5 7 10 8 3 2 4 6 6 7 10 11 11 11 7 4 3 1 4 4 4 3 4 5 5 8 9 6 4 4 5 6 5 3 2 2 2 2 3 5 7 7 4 3 3 3 4 4 5 6 6 6 6 4 2 0 2 3 3 5 5 6 9 9 8 8 9 9 9 9 10
8 6 6 6 7 8 6 5 6 6 5 3 4 5 5 3 3 4 5 7 6 4 2 3 5 7 10 12 13 14 13 9 6 5 3 4 6 5 3 1 2 4 7 7 4 2 3 3 3 3 2 1 1 2 2 2 3 6 4 3 4 4 5 5 6 7 6 6 6 5 3 3 4 5 6 6 6 6 9 11 8 7 8 9 9 10 10 11
10 8 6 6 7 7 5 6 8 6 4 3 5 5 4 5 6 5 4 5 7 7 6 6 6 8 9 9 10 11 11 9 7 6 5 5 7 6 5 3 2 5 6 5 3 1 1 3 3 3 2 3 1 2 3 3 5 5 2 3 5 5 5 5 7 8 7 6 6 4 3 4 6 8 9 10 10 9 11 11 7 5 7 9 11 12 12 12
Wind_Direction
353 352 351 349 348 348 348 350 350 349 350 349 348 346 344 341 339 336 334 335 333 330 328 325 325 323 322 322 325 328 334 349 341 330 318 312 297 268 249 222 235 248 235 212 231 238 230 225 218 216 214 222 224 218 218 214 206 205 211 220 230 235 234 233 232 229 236 235 225 246 265 278 286 288 295 283 270 344 318 242 239 247 239 242 242 231 233 236
352 351 350 348 347 346 347 349 350 350 350 350 348 346 344 341 338 336 335 335 334 332 329 327 326 324 324 326 333 340 8 44 84 76 63 316 258 250 227 123 161 172 172 129 127 180 212 210 206 212 204 202 219 218 218 216 208 206 211 222 233 238 238 236 235 232 233 231 232 248 263 277 288 292 300 297 278 322 315 234 230 228 217 222 232 229 228 227
351 350 350 348 347 345 346 348 349 350 349 349 348 346 344 341 339 337 335 336 335 334 331 329 326 326 328 331 339 1 57 84 110 73 63 206 213 155 70 81 145 152 150 130 149 173 198 216 215 218 208 192 191 207 216 215 209 207 213 226 236 242 248 248 244 240 236 231 239 252 262 273 281 286 293 294 284 310 321 217 219 221 213 209 219 222 220 218
351 350 349 349 347 346 346 348 349 350 350 349 348 346 344 342 340 337 337 337 336 336 333 329 327 330 331 332 346 32 78 87 86 60 134 186 145 84 59 48 108 140 147 145 170 182 199 228 231 226 221 193 166 193 215 213 211 213 219 229 234 239 249 252 249 248 242 236 243 255 264 273 276 280 284 281 286 316 349 201 222 238 226 216 211 209 213 218
349 349 348 349 348 347 346 348 349 350 350 349 348 347 345 344 341 338 339 338 337 337 332 329 329 330 332 335 349 36 76 88 71 63 82 70 79 69 57 49 83 144 125 118 126 153 173 175 177 187 237 193 185 201 201 201 217 222 225 234 237 240 245 239 234 244 245 241 245 253 265 273 273 274 273 270 284 327 341 208 230 256 239 228 220 210 216 220
347 347 347 348 349 348 347 348 350 350 350 349 348 348 346 344 341 339 341 341 339 336 331 329 327 328 335 334 353 38 77 89 38 32 52 52 62 58 59 60 92 152 121 127 137 152 155 137 125 130 40 210 214 228 228 233 248 243 236 238 242 247 253 246 236 244 251 250 248 251 260 268 269 268 264 261 270 303 307 237 216 249 230 226 224 218 220 220
344 345 346 347 349 349 349 350 351 350 349 349 349 348 346 345 342 340 342 343 339 334 329 325 328 334 348 2 14 44 87 77 3 354 60 52 47 51 52 56 115 154 145 154 166 173 154 137 132 205 235 258 248 239 251 265 271 268 255 245 250 257 262 257 248 250 254 256 254 252 256 264 266 263 259 256 257 269 282 258 267 296 228 222 219 212 213 220
343 344 345 347 349 349 350 351 351 350 350 351 350 349 347 345 343 341 343 343 339 332 327 326 336 339 87 20 20 37 44 26 10 4 50 44 33 45 48 48 119 176 171 170 187 185 158 154 214 219 218 235 245 237 248 266 267 280 271 257 258 262 259 254 247 245 247 252 256 253 252 256 262 261 257 256 256 262 269 267 323 21 225 224 217 209 207 212
342 343 345 347 349 349 350 351 352 351 352 352 351 349 347 346 344 343 345 343 337 330 328 333 345 165 85 16 16 18 354 6 52 54 34 30 29 34 41 39 12 282 195 197 194 176 156 190 230 240 231 230 233 232 241 264 249 254 299 266 253 250 243 243 239 238 243 251 257 258 254 249 252 257 256 259 260 259 264 269 311 58 130 294 226 214 210 211
341 342 345 348 349 349 349 351 352 352 353 353 351 349 347 346 345 344 346 343 337 332 335 350 41 164 12 9 18 16 3 14 58 75 58 40 49 47 51 54 32 6 213 228 200 176 167 200 220 234 239 237 234 230 229 254 261 269 291 268 249 242 234 237 237 237 244 252 255 257 257 247 247 255 256 259 258 252 252 250 273 260 179 351 318 220 216 218
341 343 345 348 350 350 350 351 353 353 353 353 351 350 347 347 347 347 347 343 339 337 352 34 59 199 7 29 29 20 23 21 42 79 74 60 76 73 80 87 72 84 183 239 203 188 187 207 224 236 244 251 243 232 227 243 269 272 268 256 253 250 238 238 237 238 245 251 253 253 254 247 243 249 253 257 257 251 247 239 250 262 230 314 328 243 224 230
342 343 346 348 350 351 351 352 354 354 354 353 351 349 348 348 350 350 346 343 344 349 28 72 110 87 61 57 41 32 33 24 35 65 54 61 107 104 96 102 70 52 30 13 216 210 212 220 238 256 257 256 249 235 227 240 265 267 265 257 254 249 242 242 244 250 256 256 253 250 255 252 247 251 257 257 252 248 249 244 246 258 255 241 277 279 266 249
342 344 346 348 349 351 352 353 354 355 354 353 351 350 349 350 354 353 348 348 353 15 70 91 88 72 79 61 42 43 39 28 43 52 36 52 89 73 50 23 18 29 21 24 248 237 262 265 278 288 274 264 256 246 234 243 268 270 274 268 264 261 252 248 257 266 266 260 249 247 256 259 260 267 284 267 247 245 248 245 245 251 252 255 268 275 284 266
342 345 347 348 349 350 353 353 354 354 354 353 351 351 350 352 359 359 360 8 25 83 102 90 74 58 70 61 47 45 37 36 44 33 24 29 40 35 19 354 351 11 12 31 48 3 341 324 308 300 307 295 262 249 245 254 273 281 281 273 276 278 262 248 280 286 272 262 241 244 253 262 276 286 339 312 250 245 247 243 243 245 247 257 264 263 273 271
343 346 346 347 348 350 352 352 353 353 353 353 352 351 349 351 3 16 27 42 63 106 115 96 75 61 69 64 52 42 34 40 16 16 21 11 9 20 9 339 322 341 345 6 27 5 354 349 340 345 10 358 293 262 263 266 261 293 299 288 291 286 278 281 306 302 286 292 274 253 252 261 288 291 311 348 280 253 251 244 241 241 241 249 255 257 263 256
345 347 346 346 347 349 352 352 352 352 352 352 350 350 347 343 352 25 59 75 85 103 101 86 79 68 66 60 50 32 35 47 346 16 22 357 349 343 351 334 317 328 319 322 351 343 333 332 342 4 26 33 9 332 300 278 248 332 314 303 305 295 292 296 301 308 316 329 321 279 257 258 277 286 282 321 319 297 278 253 241 237 238 243 245 253 257 245
344 347 346 344 345 347 350 352 351 351 351 349 346 349 345 333 332 343 122 115 110 116 100 80 85 78 64 55 43 13 18 20 325 4 7 338 328 306 321 339 347 342 313 306 331 330 323 313 318 342 2 5 356 343 319 301 314 332 322 310 310 308 307 304 303 316 335 336 330 316 276 263 272 276 272 296 307 304 303 289 258 240 237 241 240 238 250 244
342 347 346 343 344 346 348 351 350 349 349 346 344 347 343 329 323 307 229 166 160 163 146 102 74 80 89 49 20 349 345 322 309 331 324 314 322 307 312 326 348 352 337 324 326 317 307 290 296 307 312 316 336 347 316 297 316 326 322 314 308 315 316 310 311 319 340 341 325 335 324 286 281 273 264 280 295 293 295 299 295 268 248 245 244 232 237 244
340 346 346 343 343 344 346 349 348 347 346 343 341 341 341 330 317 299 298 283 196 199 207 192 39 55 92 32 355 330 320 294 294 309 285 294 11 338 314 319 334 340 336 325 311 306 295 275 275 269 275 284 302 329 308 283 301 313 313 307 305 316 314 313 322 322 332 336 323 325 318 301 302 286 270 277 283 288 295 290 284 285 275 263 255 240 228 235
340 345 346 343 343 343 345 346 346 345 342 340 340 337 334 319 307 308 315 297 244 223 219 204 58 72 73 36 356 330 325 311 289 293 270 274 343 340 313 293 312 315 313 306 291 287 287 282 272 261 265 272 281 296 286 264 281 307 309 294 298 312 311 317 330 331 329 324 323 327 311 300 303 295 292 299 282 274 284 283 271 272 282 277 261 248 236 230
340 344 346 343 342 343 344 344 343 342 340 340 341 338 336 329 331 339 331 274 245 227 197 109 65 72 54 32 16 359 356 99 168 273 321 325 322 326 306 292 301 309 324 314 289 282 283 281 275 267 261 263 278 280 264 268 280 303 313 301 304 307 305 308 313 324 327 311 320 333 313 297 293 285 285 293 277 263 266 273 269 267 273 275 264 251 242 237
341 343 345 342 341 343 344 343 341 340 338 339 341 341 344 349 350 346 345 355 239 209 173 119 58 57 33 12 359 348 337 8 39 354 358 331 309 298 293 304 312 312 331 330 309 305 303 294 288 287 267 259 273 275 261 289 293 290 298 302 305 307 306 299 291 301 313 309 322 333 315 302 300 292 284 282 279 272 273 277 272 267 266 266 265 253 241 242
343 342 344 342 340 342 345 344 340 339 336 336 340 341 342 348 352 342 339 350 126 180 162 98 57 69 71 4 336 330 350 3 13 8 342 284 287 299 300 300 305 314 321 323 323 319 321 328 333 337 304 272 274 270 258 278 289 281 281 288 295 307 318 307 297 297 294 308 328 329 313 310 315 307 290 284 285 281 277 274 270 268 261 258 263 255 242 244
346 342 341 342 339 340 345 344 339 337 333 332 336 337 337 341 346 351 344 336 118 156 160 123 70 91 161 193 335 349 23 20 16 3 310 272 281 314 324 301 283 312 331 328 323 314 321 336 331 331 340 313 284 260 257 280 289 284 279 280 284 294 313 310 301 301 294 294 331 339 322 318 328 330 317 299 287 282 276 266 263 266 260 255 259 252 239 243
347 342 338 340 338 337 343 343 339 335 331 331 334 336 339 341 347 8 7 359 111 146 157 155 148 152 224 241 305 342 8 12 15 13 328 280 275 306 328 320 282 319 341 328 307 305 323 335 321 321 348 341 311 269 291 303 296 293 287 280 280 285 295 296 290 309 314 296 316 356 342 322 328 342 339 320 298 292 288 274 263 261 257 251 251 246 238 243
345 341 337 339 337 336 340 342 339 334 335 339 335 334 337 337 357 36 28 34 111 151 157 185 190 267 319 272 289 321 340 8 19 11 339 303 288 300 318 325 314 337 329 308 295 301 325 337 330 324 321 326 322 298 302 306 294 288 286 281 283 286 285 282 280 308 325 302 290 317 321 301 316 348 348 324 308 305 302 293 275 267 259 247 243 240 234 238
343 342 338 338 336 335 340 340 335 335 347 350 327 326 332 331 28 71 65 62 90 154 160 24 192 335 351 354 317 307 311 356 354 335 329 320 311 313 325 317 287 309 313 300 298 302 307 317 322 318 316 312 306 299 296 296 287 280 282 278 273 280 279 268 269 285 303 303 289 276 287 295 305 19 19 334 315 318 315 306 292 280 267 248 241 237 228 229
341 342 339 337 335 335 339 338 337 344 357 348 324 328 333 342 86 90 68 73 99 137 134 66 42 342 356 53 38 308 314 339 337 340 340 324 316 318 324 307 263 277 298 297 300 299 292 294 287 295 322 325 307 303 295 296 292 286 292 279 262 268 275 267 262 269 284 302 287 265 284 303 288 53 39 357 327 358 71 312 301 290 268 252 242 235 226 224
339 341 340 338 336 337 341 342 344 353 355 345 342 342 341 38 108 123 40 64 123 128 117 91 30 14 42 22 354 337 345 329 327 347 346 324 314 319 320 305 282 280 285 297 305 301 295 291 276 278 300 319 313 301 285 308 317 302 302 281 267 273 280 281 271 270 281 284 273 279 293 292 339 28 16 12 37 104 111 129 135 115 246 238 230 229 224 221
339 339 339 339 339 342 346 351 355 357 355 349 344 341 26 82 92 128 87 69 112 108 85 217 345 7 323 308 319 23 351 308 293 298 310 315 308 318 325 314 307 295 288 302 306 303 303 292 268 263 264 284 332 321 270 284 303 290 284 279 283 283 285 287 266 262 276 267 274 299 316 274 8 25 4 36 77 103 103 119 129 99 170 195 192 209 218 221
339 338 339 341 345 349 352 358 0 360 355 344 327 332 76 95 60 55 117 97 96 65 6 255 319 332 314 306 341 32 339 320 321 296 291 313 304 319 331 317 318 320 320 324 317 315 314 287 229 223 232 264 316 323 260 235 264 279 280 269 271 281 288 284 255 242 237 246 281 348 29 22 67 43 15 66 107 291 79 106 109 77 103 153 155 173 197 209
338 336 340 344 351 356 357 0 1 3 360 337 339 31 57 98 59 44 55 91 89 36 29 38 358 354 357 360 30 6 339 322 325 335 340 326 300 343 355 336 334 337 340 338 329 330 331 216 203 197 213 260 288 308 315 182 271 302 281 247 240 307 350 317 291 294 221 243 254 257 18 44 84 65 37 79 269 277 74 97 101 83 89 105 103 139 180 201
337 336 341 346 352 359 359 360 359 1 359 323 32 51 56 87 74 41 28 49 75 15 5 1 349 9 36 19 5 342 337 317 277 333 20 4 319 11 23 346 340 343 341 334 331 339 357 359 233 203 205 230 285 339 352 335 323 320 270 222 212 113 57 312 293 330 273 283 270 202 30 108 110 67 48 67 279 222 103 87 96 90 87 93 88 96 116 135
337 337 343 345 352 2 358 354 357 359 350 311 95 54 53 71 64 25 11 20 12 331 328 325 320 335 18 5 4 336 335 337 299 300 35 351 314 352 354 339 345 350 339 333 337 345 354 357 238 184 196 221 234 7 336 309 318 312 187 283 257 200 157 209 226 182 213 297 304 73 103 147 130 88 97 65 335 182 112 75 87 89 85 93 89 81 80 86
335 339 347 347 354 1 352 345 355 5 360 52 81 50 48 52 31 8 2 2 350 338 339 331 310 74 88 72 37 359 356 355 317 303 300 269 325 10 345 343 352 353 341 332 344 338 307 269 223 159 230 253 248 246 266 271 272 175 290 332 320 303 297 216 186 200 203 307 338 76 103 123 118 103 114 96 66 94 87 68 75 81 85 101 103 87 76 78
335 340 346 353 0 356 344 337 353 16 53 83 85 54 49 48 21 8 0 355 351 350 0 52 97 69 69 58 23 354 356 353 339 335 311 274 238 238 335 6 348 341 336 324 326 316 267 277 267 237 239 252 249 240 264 260 240 225 267 282 286 298 292 229 186 213 176 46 31 93 104 111 118 112 120 109 58 67 76 75 76 78 80 88 104 106 88 82
333 337 343 1 360 348 345 348 353 35 71 71 78 61 55 61 34 12 356 353 353 345 342 70 77 50 41 22 356 341 342 345 353 354 344 321 283 243 174 42 353 331 326 320 310 292 283 295 279 255 241 244 248 247 259 261 250 242 245 261 268 260 252 230 209 160 110 91 65 84 85 93 109 77 92 124 63 58 70 78 78 78 77 78 90 103 109 109
332 333 340 356 351 349 13 34 48 82 72 69 84 69 59 75 25 355 344 349 351 328 312 71 94 44 4 1 350 341 334 338 355 358 7 21 6 76 127 56 344 324 321 328 313 285 299 296 253 270 269 250 249 238 228 238 242 238 245 269 260 215 204 214 207 102 109 123 89 91 79 73 65 36 53 78 72 61 64 67 66 68 73 77 83 88 93 104
334 334 337 345 346 1 26 58 96 78 55 59 91 72 51 329 327 333 338 349 356 355 341 20 79 343 336 335 334 340 340 348 3 5 17 22 25 78 95 354 339 334 336 347 339 306 315 290 249 315 304 236 209 201 195 201 217 228 237 252 252 222 181 159 146 130 142 144 123 121 93 45 41 42 53 66 70 66 58 55 51 43 50 63 73 75 73 82
335 335 335 342 351 9 16 32 97 50 36 53 69 49 11 324 328 333 343 355 359 25 43 18 5 352 347 339 330 342 355 5 8 357 8 30 36 60 49 11 0 359 354 352 347 339 334 298 291 332 329 173 124 71 50 113 205 213 212 210 227 225 184 150 114 116 136 137 132 119 57 352 53 76 65 64 70 61 35 42 47 21 7 7 1 3 25 48
335 338 337 345 360 17 10 9 229 272 19 64 53 33 357 330 337 338 350 7 0 15 19 7 6 4 5 6 351 353 6 23 11 345 8 52 45 54 53 27 9 2 354 348 352 7 9 6 347 348 101 136 129 91 66 83 148 151 158 147 110 117 172 164 125 119 123 127 142 142 134 243 103 108 95 71 57 349 328 342 360 342 330 325 318 311 303 292
333 341 339 342 4 24 12 341 217 259 329 2 6 18 346 327 343 340 339 348 344 360 4 357 358 356 357 4 358 359 8 30 26 5 26 60 53 59 55 18 353 353 352 355 13 25 29 24 13 53 129 143 136 113 118 142 160 153 141 132 125 121 137 147 153 149 127 113 126 133 132 150 164 183 224 327 327 310 307 310 310 310 310 311 309 307 306 303
325 335 332 326 344 14 10 195 213 279 295 280 295 305 300 314 334 332 322 312 314 356 14 10 3 353 350 346 349 357 2 9 15 1 8 62 69 65 46 3 343 345 353 8 21 18 27 24 27 73 112 135 122 104 141 172 200 190 155 148 157 140 129 132 134 144 132 123 135 130 115 180 188 202 273 311 310 303 300 298 297 300 305 309 309 306 307 309
310 313 308 307 320 350 359 210 231 297 266 262 272 266 276 292 305 323 337 309 293 323 3 10 358 340 342 337 336 346 358 7 1 345 349 43 89 75 42 351 338 344 357 16 25 23 31 24 35 105 117 128 108 64 129 165 194 184 170 186 191 185 182 167 158 159 140 133 154 148 141 178 185 205 291 299 294 290 288 285 286 292 299 306 308 309 311 314
296 291 281 297 304 305 308 275 296 321 291 290 283 225 268 294 286 323 354 339 319 310 317 334 326 302 308 324 324 323 342 10 8 350 4 46 76 69 30 325 328 352 5 18 21 18 32 39 49 118 132 132 136 91 71 67 84 122 154 243 221 209 206 198 192 182 153 133 152 156 162 167 170 198 237 251 267 261 263 271 280 289 298 305 306 306 309 312
285 271 266 294 300 283 273 260 278 298 299 308 303 220 248 3 322 320 336 338 344 326 301 326 334 294 281 306 316 304 315 357 4 1 30 65 69 58 45 322 322 351 6 17 18 12 32 56 65 93 106 105 105 94 74 59 55 62 44 324 224 198 196 198 197 184 161 144 136 140 160 164 166 195 216 217 231 240 253 268 281 292 302 309 308 306 308 308
280 273 269 290 296 274 250 255 268 269 277 302 309 227 186 78 4 324 305 312 342 337 313 345 359 297 281 311 318 294 266 322 320 357 55 78 79 72 74 25 332 350 5 11 12 7 39 69 76 92 102 103 98 84 74 61 52 56 61 49 61 153 179 192 188 172 165 156 136 139 160 173 185 206 220 222 235 251 267 280 283 289 299 306 307 308 308 306
275 280 286 283 282 272 262 268 268 264 273 290 296 233 187 148 348 329 302 315 333 329 312 314 308 272 278 312 317 300 263 252 274 306 82 96 89 86 91 50 11 17 11 5 5 8 53 81 84 93 101 105 103 92 84 68 54 55 65 57 51 72 137 173 167 162 172 176 164 162 172 199 216 226 238 242 263 279 280 287 290 294 298 296 302 311 312 310
267 277 285 281 291 292 282 272 254 242 268 281 268 220 186 205 317 306 304 314 314 312 305 285 267 264 285 302 308 307 290 259 252 267 137 119 91 84 93 50 20 13 4 357 2 23 68 88 85 89 98 99 110 112 101 73 56 50 56 60 42 39 69 119 135 155 183 190 175 169 177 201 217 243 270 284 314 309 287 292 300 301 290 282 294 311 317 319
267 276 282 284 301 300 281 265 242 220 227 233 203 194 187 249 317 297 310 316 305 295 307 275 266 278 294 295 295 300 299 284 263 273 191 145 117 101 99 50 18 350 343 344 350 23 60 82 80 81 82 85 160 169 123 91 52 31 38 51 33 32 60 88 103 128 170 178 161 155 152 146 165 340 346 344 342 325 296 292 295 291 278 275 289 305 314 324
261 266 271 274 295 296 265 239 225 202 194 198 190 193 200 228 276 288 316 305 264 229 241 266 267 279 285 284 284 290 294 285 267 280 274 193 155 139 151 89 5 316 328 337 322 344 16 27 51 56 28 20 234 228 196 191 308 336 3 53 55 60 80 99 99 95 111 128 118 107 92 46 16 18 17 1 353 332 300 290 290 288 277 276 289 302 312 324
251 254 258 267 290 293 250 221 218 206 206 228 219 219 228 239 254 276 303 274 254 257 272 267 265 286 295 288 281 279 279 274 267 277 278 228 192 176 187 204 266 281 310 345 338 268 326 351 9 20 6 13 54 176 198 246 290 310 345 68 72 68 70 95 114 105 100 103 96 84 59 13 4 9 360 348 347 329 298 290 294 293 286 289 295 301 309 317
Height
3147 3146 3144 3143 3141 3140 3139 3138 3136 3135 3134 3132 3131 3129 3128 3126 3125 3123 3122 3121 3120 3119 3118 3117 3117 3116 3116 3115 3115 3114 3114 3114 3114 3113 3113 3113 3113 3113 3113 3113 3113 3113 3113 3114 3114 3115 3115 3116 3116 3117 3117 3119 3120 3121 3122 3123 3124 3125 3125 3124 3124 3126 3127 3129 3131 3133 3134 3135 3134 3135 3138 3138 3137 3139 3138 3138 3139 3137 3135 3136 3139 3140 3141 3143 3145 3146 3147 3147
3146 3145 3143 3142 3141 3139 3138 3137 3135 3134 3133 3131 3130 3128 3127 3125 3124 3122 3121 3120 3119 3118 3117 3116 3116 3115 3115 3114 3114 3114 3113 3113 3113 3113 3113 3112 3112 3112 3112 3112 3112 3112 3112 3113 3114 3115 3115 3115 3116 3116 3117 3117 3119 3121 3121 3122 3123 3123 3123 3123 3123 3125 3126 3128 3130 3132 3133 3134 3132 3133 3135 3135 3135 3136 3137 3136 3136 3136 3135 3135 3137 3138 3139 3141 3143 3144 3145 3145
3146 3144 3143 3141 3140 3138 3137 3136 3134 3133 3132 3130 3129 3127 3126 3124 3123 3122 3120 3119 3118 3117 3116 3115 3115 3114 3114 3114 3114 3113 3113 3113 3112 3112 3112 3112 3112 3111 3111 3112 3112 3112 3112 3112 3113 3114 3115 3115 3116 3116 3116 3117 3118 3120 3120 3122 3122 3122 3122 3122 3123 3124 3126 3128 3130 3130 3132 3133 3132 3131 3132 3133 3134 3135 3135 3136 3135 3135 3134 3134 3136 3137 3138 3139 3140 3142 3143 3144
3145 3144 3142 3140 3139 3137 3136 3135 3134 3132 3131 3129 3128 3126 3125 3123 3122 3121 3120 3118 3117 3116 3115 3114 3114 3113 3113 3113 3113 3113 3113 3112 3112 3112 3112 3111 3111 3110 3111 3111 3111 3111 3111 3112 3113 3114 3115 3115 3116 3116 3116 3116 3117 3118 3119 3120 3121 3121 3121 3121 3122 3124 3125 3127 3128 3129 3131 3132 3131 3129 3130 3130 3131 3132 3133 3134 3134 3134 3134 3135 3137 3138 3138 3138 3139 3140 3141 3142
3145 3143 3141 3140 3138 3137 3135 3134 3133 3131 3130 3128 3127 3125 3124 3123 3121 3120 3119 3118 3116 3115 3114 3114 3113 3113 3113 3113 3113 3112 3112 3113 3112 3112 3111 3110 3110 3110 3110 3110 3111 3111 3111 3112 3113 3113 3114 3115 3116 3116 3116 3117 3117 3118 3119 3120 3121 3121 3121 3121 3122 3123 3124 3125 3127 3128 3129 3130 3129 3128 3127 3127 3128 3129 3131 3132 3133 3133 3134 3135 3136 3137 3138 3139 3138 3139 3139 3140
3144 3142 3141 3139 3137 3136 3134 3133 3132 3131 3129 3128 3126 3125 3123 3122 3120 3119 3118 3117 3116 3115 3114 3113 3112 3112 3112 3112 3112 3112 3112 3112 3112 3111 3110 3110 3109 3109 3110 3110 3110 3111 3111 3112 3113 3113 3114 3114 3115 3115 3116 3117 3118 3118 3119 3120 3121 3120 3120 3121 3122 3123 3123 3124 3125 3126 3127 3127 3127 3126 3125 3125 3125 3126 3128 3130 3132 3133 3132 3133 3134 3134 3135 3136 3137 3138 3138 3139
3143 3141 3140 3138 3137 3135 3134 3132 3131 3130 3128 3127 3125 3124 3123 3121 3119 3118 3117 3116 3115 3114 3113 3113 3112 3112 3112 3112 3112 3112 3112 3112 3112 3111 3110 3109 3109 3109 3109 3110 3110 3110 3111 3112 3113 3113 3114 3114 3114 3114 3114 3115 3116 3117 3118 3119 3119 3119 3119 3120 3121 3121 3122 3123 3124 3124 3125 3125 3124 3123 3122 3122 3123 3123 3125 3127 3131 3132 3131 3131 3132 3132 3133 3134 3135 3136 3137 3139
3142 3140 3139 3137 3136 3134 3133 3132 3130 3129 3127 3126 3125 3123 3122 3120 3119 3117 3116 3116 3115 3114 3113 3112 3112 3111 3111 3112 3112 3112 3112 3112 3112 3110 3110 3110 3109 3109 3110 3110 3110 3111 3111 3111 3112 3113 3113 3113 3113 3113 3113 3114 3114 3115 3117 3117 3118 3118 3118 3118 3119 3120 3120 3121 3121 3121 3121 3121 3121 3120 3119 3119 3120 3120 3121 3124 3129 3130 3130 3130 3130 3131 3131 3132 3134 3135 3135 3136
3141 3139 3138 3137 3135 3134 3132 3131 3129 3128 3127 3125 3124 3122 3121 3120 3118 3117 3116 3115 3114 3113 3113 3112 3112 3111 3111 3112 3112 3112 3111 3112 3111 3110 3110 3110 3110 3110 3110 3110 3111 3111 3111 3111 3112 3112 3112 3112 3112 3112 3112 3112 3113 3114 3116 3116 3116 3116 3116 3117 3117 3117 3117 3117 3117 3118 3118 3118 3118 3118 3118 3117 3117 3118 3118 3121 3126 3127 3128 3129 3128 3130 3130 3130 3133 3135 3135 3135
3140 3138 3137 3135 3134 3133 3131 3130 3129 3127 3126 3124 3123 3121 3120 3119 3118 3116 3115 3114 3114 3113 3113 3112 3112 3111 3112 3112 3112 3111 3111 3110 3110 3110 3110 3110 3110 3110 3110 3111 3112 3112 3112 3112 3111 3111 3110 3111 3111 3111 3111 3112 3112 3113 3114 3114 3114 3114 3114 3115 3115 3114 3115 3115 3115 3116 3117 3117 3117 3117 3117 3116 3116 3115 3115 3118 3122 3124 3126 3127 3127 3128 3129 3129 3130 3133 3135 3134
3139 3137 3136 3134 3133 3132 3130 3129 3128 3126 3125 3123 3122 3121 3119 3118 3117 3116 3115 3114 3113 3113 3112 3112 3112 3112 3112 3112 3112 3111 3110 3110 3110 3110 3111 3111 3111 3111 3111 3111 3111 3112 3112 3112 3111 3110 3110 3110 3110 3110 3111 3111 3111 3112 3112 3113 3113 3113 3113 3112 3113 3112 3113 3113 3114 3116 3116 3116 3116 3116 3115 3115 3115 3113 3112 3114 3119 3121 3124 3126 3126 3126 3128 3128 3128 3131 3133 3134
3139 3137 3135 3134 3132 3131 3129 3128 3127 3126 3124 3123 3121 3120 3119 3117 3116 3115 3114 3114 3113 3113 3112 3112 3112 3112 3112 3112 3112 3110 3109 3109 3109 3110 3111 3111 3111 3111 3111 3111 3110 3110 3110 3111 3111 3110 3110 3110 3110 3110 3110 3110 3110 3111 3111 3111 3111 3111 3111 3110 3110 3111 3111 3112 3113 3115 3115 3114 3115 3116 3113 3112 3113 3112 3112 3112 3114 3118 3121 3124 3125 3125 3127 3127 3128 3129 3131 3133
3138 3136 3135 3133 3131 3130 3129 3127 3126 3125 3123 3122 3121 3119 3118 3117 3116 3115 3114 3113 3113 3112 3112 3112 3112 3112 3112 3112 3111 3110 3109 3109 3110 3111 3111 3110 3110 3110 3110 3110 3109 3109 3110 3111 3111 3111 3111 3110 3110 3110 3110 3109 3110 3110 3110 3110 3110 3110 3110 3109 3110 3110 3110 3112 3113 3114 3113 3112 3113 3115 3112 3109 3111 3113 3114 3113 3112 3115 3118 3121 3124 3124 3125 3126 3126 3127 3128 3131
3137 3136 3134 3132 3131 3129 3128 3127 3125 3124 3122 3121 3120 3119 3118 3116 3115 3114 3113 3113 3113 3112 3112 3112 3112 3112 3112 3112 3111 3110 3110 3109 3109 3110 3110 3110 3109 3109 3109 3109 3109 3109 3110 3110 3111 3111 3111 3111 3110 3110 3109 3109 3109 3110 3110 3110 3110 3110 3110 3110 3111 3111 3110 3112 3113 3113 3111 3111 3112 3114 3110 3108 3111 3112 3113 3113 3113 3113 3115 3118 3121 3122 3123 3124 3125 3125 3127 3129
3137 3135 3133 3132 3130 3129 3127 3126 3124 3123 3121 3120 3119 3118 3117 3116 3115 3114 3113 3113 3113 3112 3112 3112 3112 3112 3112 3112 3112 3111 3110 3109 3109 3110 3109 3110 3110 3109 3109 3109 3109 3109 3109 3110 3110 3110 3110 3110 3110 3110 3109 3109 3109 3109 3110 3110 3110 3111 3111 3111 3112 3112 3110 3110 3111 3111 3111 3110 3111 3112 3109 3107 3109 3111 3111 3112 3112 3112 3112 3114 3117 3119 3120 3122 3123 3123 3125 3128
3136 3134 3133 3131 3130 3128 3127 3125 3124 3122 3121 3120 3119 3118 3116 3115 3114 3114 3113 3113 3113 3112 3112 3112 3112 3112 3112 3112 3112 3111 3110 3110 3110 3109 3109 3110 3110 3110 3110 3110 3109 3109 3109 3109 3109 3109 3109 3110 3110 3110 3109 3109 3110 3110 3109 3110 3111 3112 3112 3112 3112 3112 3111 3109 3108 3110 3111 3109 3109 3109 3107 3106 3106 3109 3111 3111 3111 3110 3111 3112 3114 3116 3118 3120 3122 3122 3123 3126
3135 3134 3132 3131 3129 3128 3126 3124 3123 3121 3120 3119 3118 3117 3116 3115 3114 3113 3113 3112 3112 3112 3112 3112 3112 3112 3112 3111 3111 3111 3110 3110 3110 3109 3110 3111 3111 3110 3110 3110 3110 3109 3109 3109 3109 3109 3109 3109 3109 3110 3109 3109 3110 3110 3109 3110 3111 3111 3112 3112 3111 3111 3111 3108 3107 3109 3109 3108 3107 3106 3105 3105 3105 3107 3109 3109 3110 3109 3109 3111 3112 3114 3115 3117 3120 3121 3121 3124
3135 3133 3131 3130 3128 3127 3125 3124 3122 3120 3119 3118 3117 3116 3115 3114 3113 3113 3112 3112 3112 3111 3111 3111 3111 3111 3111 3111 3110 3110 3110 3110 3110 3110 3111 3111 3111 3110 3109 3109 3109 3109 3109 3109 3109 3108 3108 3108 3109 3109 3109 3109 3109 3110 3109 3110 3110 3110 3111 3111 3110 3109 3109 3108 3106 3107 3107 3106 3106 3105 3104 3104 3105 3106 3107 3108 3108 3107 3107 3108 3110 3111 3112 3114 3117 3118 3120 3122
3134 3133 3131 3129 3128 3126 3124 3123 3121 3119 3118 3117 3116 3115 3114 3113 3113 3112 3112 3112 3111 3111 3111 3110 3110 3110 3110 3110 3110 3110 3110 3111 3111 3111 3111 3110 3110 3110 3109 3109 3109 3108 3108 3108 3108 3108 3108 3108 3108 3108 3108 3108 3109 3109 3109 3109 3109 3109 3109 3109 3108 3108 3107 3106 3105 3105 3105 3104 3104 3104 3104 3104 3104 3105 3106 3106 3107 3106 3105 3105 3106 3108 3109 3111 3114 3116 3118 3119
3134 3132 3130 3128 3127 3125 3123 3122 3120 3118 3117 3116 3115 3114 3113 3113 3112 3112 3112 3111 3111 3110 3110 3110 3110 3110 3110 3110 3110 3110 3110 3110 3110 3110 3110 3110 3109 3109 3109 3109 3109 3108 3108 3107 3107 3107 3107 3108 3108 3108 3107 3107 3108 3108 3108 3108 3108 3108 3107 3107 3107 3106 3105 3105 3104 3104 3103 3102 3103 3103 3103 3103 3103 3104 3104 3104 3104 3104 3103 3102 3102 3104 3106 3107 3110 3113 3115 3117
3133 3131 3129 3128 3126 3125 3123 3121 3119 3117 3116 3114 3113 3112 3112 3112 3111 3110 3110 3109 3109 3109 3110 3110 3109 3109 3110 3109 3109 3110 3110 3110 3109 3109 3109 3109 3108 3109 3108 3108 3108 3108 3107 3107 3107 3107 3107 3106 3107 3106 3106 3106 3107 3107 3107 3107 3107 3107 3106 3106 3105 3105 3104 3104 3104 3103 3102 3101 3100 3100 3100 3100 3102 3102 3102 3102 3102 3102 3101 3101 3100 3101 3102 3102 3105 3109 3113 3114
3132 3130 3129 3127 3125 3124 3122 3120 3118 3116 3115 3113 3112 3112 3111 3110 3109 3109 3108 3108 3107 3108 3109 3109 3109 3109 3109 3109 3109 3110 3111 3110 3109 3108 3108 3108 3108 3108 3107 3107 3108 3107 3107 3107 3106 3106 3106 3105 3105 3105 3105 3105 3106 3106 3105 3105 3106 3106 3106 3105 3105 3104 3103 3103 3103 3102 3101 3099 3099 3099 3098 3098 3099 3099 3100 3100 3099 3099 3099 3099 3099 3099 3099 3099 3100 3103 3108 3112
3131 3129 3128 3127 3125 3123 3121 3119 3117 3115 3114 3112 3112 3111 3111 3110 3109 3108 3108 3107 3107 3108 3108 3109 3109 3109 3109 3109 3109 3110 3110 3109 3109 3108 3108 3108 3107 3107 3107 3107 3107 3106 3106 3106 3105 3105 3104 3104 3104 3104 3103 3104 3104 3104 3104 3105 3105 3105 3105 3105 3104 3104 3103 3101 3102 3101 3100 3099 3099 3098 3096 3096 3096 3097 3097 3096 3096 3096 3096 3096 3096 3097 3097 3098 3097 3099 3103 3107
3130 3128 3127 3126 3124 3122 3120 3118 3116 3114 3113 3112 3111 3111 3110 3109 3108 3108 3108 3107 3107 3107 3108 3108 3108 3109 3109 3109 3110 3110 3110 3109 3108 3108 3107 3107 3107 3107 3106 3106 3105 3106 3105 3105 3105 3104 3104 3103 3103 3103 3103 3103 3103 3103 3103 3103 3104 3104 3104 3104 3103 3103 3103 3102 3101 3100 3099 3099 3099 3097 3094 3094 3095 3095 3093 3093 3094 3094 3093 3094 3096 3096 3097 3097 3097 3097 3100 3103
3129 3127 3126 3125 3123 3121 3119 3117 3115 3113 3112 3111 3111 3110 3109 3108 3108 3108 3107 3107 3107 3108 3108 3108 3108 3109 3109 3109 3109 3110 3109 3108 3108 3108 3107 3106 3106 3106 3106 3105 3105 3105 3105 3105 3104 3104 3103 3103 3103 3102 3102 3102 3102 3102 3102 3102 3102 3102 3102 3102 3102 3101 3101 3101 3101 3100 3099 3099 3098 3098 3097 3096 3096 3095 3093 3093 3094 3093 3093 3094 3096 3096 3096 3096 3096 3097 3098 3100
3128 3126 3124 3123 3122 3120 3118 3116 3114 3112 3111 3110 3109 3109 3108 3107 3107 3107 3107 3107 3107 3108 3108 3108 3109 3110 3109 3109 3109 3109 3108 3108 3108 3107 3106 3106 3106 3106 3106 3105 3105 3105 3105 3104 3104 3103 3102 3102 3102 3102 3101 3101 3101 3101 3101 3101 3101 3101 3101 3101 3101 3100 3100 3100 3100 3100 3100 3099 3098 3099 3100 3098 3096 3095 3094 3094 3094 3093 3093 3094 3095 3095 3094 3094 3094 3095 3096 3097
3127 3125 3123 3122 3120 3119 3117 3115 3113 3111 3110 3110 3109 3108 3108 3107 3107 3107 3107 3108 3108 3108 3108 3109 3109 3109 3109 3108 3108 3108 3108 3108 3107 3107 3106 3106 3105 3105 3105 3105 3104 3104 3104 3103 3102 3102 3102 3101 3101 3101 3101 3100 3100 3100 3100 3100 3100 3099 3099 3099 3099 3099 3099 3099 3100 3100 3100 3099 3098 3098 3099 3098 3097 3096 3095 3094 3094 3093 3092 3093 3094 3093 3092 3092 3092 3093 3094 3095
3126 3124 3122 3120 3119 3117 3116 3114 3112 3110 3110 3109 3108 3108 3107 3107 3107 3107 3107 3108 3109 3108 3108 3109 3109 3109 3109 3108 3108 3108 3108 3107 3107 3106 3106 3105 3105 3104 3104 3103 3103 3103 3103 3102 3101 3101 3100 3101 3101 3100 3100 3099 3099 3099 3100 3099 3099 3098 3098 3098 3098 3098 3098 3099 3099 3099 3099 3099 3097 3097 3097 3097 3096 3096 3095 3094 3092 3091 3091 3091 3091 3091 3090 3089 3090 3090 3092 3093
3125 3123 3121 3119 3117 3116 3114 3112 3111 3110 3109 3109 3108 3107 3107 3107 3107 3107 3107 3108 3108 3108 3108 3109 3108 3108 3108 3108 3108 3108 3108 3107 3107 3106 3106 3105 3104 3104 3103 3103 3102 3102 3102 3101 3100 3099 3099 3099 3099 3099 3099 3099 3098 3098 3098 3098 3098 3097 3097 3097 3097 3097 3097 3097 3097 3097 3097 3098 3096 3096 3096 3096 3096 3096 3095 3094 3092 3090 3090 3089 3088 3089 3088 3087 3087 3087 3088 3090
3123 3122 3120 3119 3117 3115 3113 3111 3110 3109 3108 3108 3108 3107 3107 3107 3107 3107 3107 3108 3108 3108 3108 3108 3108 3108 3108 3108 3107 3107 3107 3107 3106 3106 3105 3105 3104 3103 3103 3102 3101 3101 3101 3100 3099 3099 3098 3097 3097 3098 3098 3098 3098 3097 3097 3097 3097 3097 3096 3096 3096 3097 3096 3096 3096 3096 3097 3097 3096 3096 3096 3095 3096 3097 3095 3094 3093 3092 3090 3087 3086 3088 3086 3084 3085 3084 3085 3086
3122 3121 3119 3118 3116 3114 3112 3111 3110 3109 3108 3108 3107 3107 3107 3107 3107 3107 3108 3108 3108 3108 3108 3108 3108 3107 3107 3107 3107 3106 3106 3106 3106 3105 3105 3104 3104 3103 3102 3101 3100 3100 3099 3099 3098 3098 3097 3096 3096 3097 3097 3097 3097 3096 3096 3096 3096 3096 3096 3096 3096 3096 3095 3095 3095 3095 3096 3096 3095 3095 3095 3094 3096 3098 3096 3094 3094 3094 3091 3086 3086 3089 3087 3083 3081 3082 3083 3084
3122 3120 3118 3117 3115 3114 3112 3110 3109 3108 3108 3107 3107 3107 3107 3107 3107 3108 3108 3108 3108 3109 3108 3108 3107 3107 3106 3106 3106 3106 3106 3106 3105 3104 3104 3104 3103 3102 3101 3101 3100 3099 3099 3098 3097 3096 3096 3095 3095 3096 3096 3096 3096 3096 3096 3095 3095 3095 3094 3094 3095 3095 3095 3095 3095 3096 3096 3094 3094 3095 3094 3095 3098 3098 3097 3095 3094 3096 3092 3086 3085 3088 3088 3084 3080 3080 3082 3083
3121 3119 3117 3116 3115 3113 3111 3110 3109 3108 3107 3107 3107 3107 3106 3107 3108 3109 3108 3108 3109 3108 3108 3108 3107 3107 3106 3106 3106 3106 3105 3105 3104 3104 3103 3103 3102 3102 3101 3101 3100 3100 3099 3097 3096 3096 3095 3094 3094 3095 3096 3096 3095 3095 3095 3094 3094 3094 3094 3094 3094 3095 3096 3097 3097 3097 3096 3094 3093 3093 3093 3096 3098 3098 3098 3096 3095 3096 3094 3088 3086 3088 3087 3084 3082 3082 3082 3083
3120 3118 3117 3115 3114 3113 3111 3110 3109 3108 3107 3107 3107 3107 3107 3107 3109 3109 3109 3108 3108 3108 3107 3107 3106 3106 3106 3105 3105 3105 3105 3104 3104 3104 3103 3102 3102 3102 3101 3101 3100 3100 3098 3097 3096 3096 3095 3095 3094 3094 3094 3094 3094 3094 3095 3094 3094 3094 3094 3094 3093 3094 3095 3096 3096 3096 3095 3094 3092 3092 3093 3096 3098 3098 3098 3097 3095 3095 3094 3090 3088 3088 3088 3085 3084 3086 3086 3086
3119 3117 3116 3115 3113 3112 3110 3109 3108 3108 3107 3107 3107 3107 3107 3108 3109 3109 3108 3108 3107 3107 3106 3106 3105 3105 3105 3105 3105 3104 3104 3104 3103 3103 3102 3101 3101 3101 3101 3100 3100 3099 3098 3097 3096 3096 3095 3095 3094 3094 3094 3093 3093 3094 3094 3093 3093 3093 3093 3093 3093 3093 3093 3094 3094 3094 3094 3094 3093 3092 3095 3097 3097 3098 3098 3097 3096 3094 3093 3092 3091 3090 3088 3086 3086 3088 3088 3089
3118 3116 3115 3114 3113 3111 3110 3109 3108 3108 3108 3108 3107 3107 3107 3108 3108 3108 3108 3107 3107 3106 3105 3105 3105 3105 3105 3105 3105 3104 3104 3103 3103 3102 3102 3101 3101 3101 3101 3100 3099 3099 3098 3097 3096 3096 3095 3094 3093 3093 3093 3092 3092 3093 3093 3092 3093 3093 3092 3093 3093 3093 3093 3093 3093 3093 3093 3095 3096 3095 3096 3098 3098 3099 3098 3097 3096 3093 3092 3092 3092 3091 3088 3087 3088 3090 3091 3091
3117 3116 3115 3113 3112 3111 3110 3109 3108 3108 3108 3108 3107 3107 3107 3108 3108 3108 3108 3107 3106 3105 3105 3104 3104 3104 3104 3104 3104 3103 3103 3103 3102 3102 3102 3101 3101 3101 3101 3100 3099 3098 3098 3097 3096 3095 3094 3094 3092 3092 3092 3092 3092 3092 3092 3092 3092 3092 3092 3092 3092 3092 3092 3092 3092 3093 3093 3096 3098 3098 3097 3098 3099 3099 3099 3097 3096 3095 3093 3092 3092 3091 3089 3089 3091 3092 3093 3093
3116 3115 3114 3113 3112 3111 3110 3109 3108 3108 3108 3108 3107 3107 3107 3108 3108 3108 3107 3106 3106 3105 3104 3104 3104 3104 3104 3104 3104 3103 3103 3102 3102 3102 3101 3101 3100 3100 3100 3099 3098 3097 3097 3096 3095 3094 3093 3093 3092 3092 3091 3091 3090 3091 3091 3091 3091 3091 3091 3091 3091 3091 3091 3091 3091 3092 3093 3096 3099 3099 3098 3098 3098 3098 3098 3096 3096 3096 3095 3094 3093 3091 3090 3091 3092 3093 3093 3094
3115 3113 3112 3111 3110 3109 3109 3108 3108 3108 3107 3107 3107 3107 3107 3107 3107 3107 3107 3106 3105 3104 3104 3104 3104 3104 3104 3104 3104 3103 3103 3102 3102 3101 3101 3101 3100 3099 3099 3099 3098 3097 3097 3095 3094 3093 3092 3092 3091 3091 3090 3089 3089 3090 3090 3090 3090 3090 3090 3090 3090 3090 3090 3090 3091 3091 3092 3094 3098 3100 3099 3099 3098 3098 3097 3096 3096 3096 3096 3095 3093 3092 3092 3092 3093 3093 3093 3092
3114 3112 3111 3110 3109 3108 3108 3108 3107 3107 3107 3107 3107 3107 3107 3107 3107 3107 3106 3105 3105 3104 3104 3104 3104 3104 3104 3104 3103 3103 3103 3102 3101 3101 3100 3100 3100 3099 3099 3098 3098 3097 3096 3094 3093 3092 3092 3091 3091 3090 3089 3089 3089 3089 3090 3090 3090 3089 3090 3090 3090 3089 3089 3090 3090 3090 3090 3092 3095 3098 3099 3099 3098 3098 3097 3096 3096 3096 3096 3096 3095 3093 3093 3093 3093 3092 3092 3092
3113 3111 3110 3109 3108 3108 3107 3107 3107 3107 3107 3107 3106 3107 3107 3107 3107 3106 3106 3105 3104 3104 3104 3104 3104 3104 3104 3104 3103 3103 3103 3102 3101 3101 3100 3099 3099 3099 3099 3098 3097 3097 3095 3094 3093 3092 3091 3091 3091 3090 3089 3089 3089 3089 3090 3090 3090 3089 3089 3089 3089 3089 3089 3090 3090 3090 3090 3090 3092 3095 3098 3099 3098 3097 3097 3096 3096 3096 3096 3096 3095 3094 3093 3092 3092 3091 3091 3092
3112 3111 3110 3109 3108 3108 3107 3107 3106 3106 3106 3106 3106 3106 3106 3107 3107 3106 3105 3105 3104 3104 3104 3103 3103 3103 3103 3103 3103 3103 3102 3102 3101 3101 3100 3099 3099 3099 3099 3098 3097 3096 3095 3093 3092 3092 3091 3091 3090 3090 3089 3090 3090 3090 3090 3091 3090 3089 3089 3089 3088 3088 3088 3089 3089 3090 3090 3090 3091 3093 3096 3098 3098 3097 3097 3096 3096 3096 3095 3095 3094 3093 3092 3091 3090 3090 3090 3091
3111 3110 3109 3108 3108 3107 3107 3106 3106 3106 3106 3106 3106 3106 3106 3106 3106 3106 3105 3104 3104 3104 3104 3103 3103 3103 3103 3103 3103 3102 3102 3102 3101 3101 3100 3099 3099 3098 3098 3098 3097 3097 3095 3093 3092 3091 3091 3091 3090 3090 3090 3090 3090 3090 3090 3090 3090 3090 3089 3089 3089 3088 3088 3088 3089 3089 3089 3090 3090 3092 3095 3097 3096 3096 3096 3096 3095 3095 3094 3093 3092 3091 3090 3090 3089 3089 3089 3090
3110 3109 3108 3108 3107 3107 3106 3106 3105 3105 3104 3105 3105 3105 3105 3105 3105 3105 3105 3104 3103 3103 3103 3103 3103 3103 3102 3103 3102 3102 3102 3101 3101 3101 3100 3099 3098 3098 3098 3098 3097 3097 3095 3094 3092 3092 3091 3091 3090 3090 3091 3091 3091 3091 3090 3090 3090 3089 3089 3089 3089 3088 3088 3088 3088 3088 3089 3090 3089 3091 3093 3094 3095 3095 3095 3095 3095 3094 3093 3092 3091 3090 3089 3089 3088 3088 3088 3089
3109 3108 3108 3107 3107 3106 3105 3105 3104 3104 3103 3104 3104 3104 3104 3104 3104 3104 3104 3103 3103 3103 3103 3103 3102 3102 3102 3102 3102 3102 3101 3101 3101 3101 3100 3099 3098 3098 3098 3098 3097 3097 3095 3094 3093 3092 3091 3091 3090 3089 3090 3091 3091 3092 3091 3090 3090 3089 3089 3088 3088 3088 3088 3088 3087 3087 3088 3089 3089 3089 3091 3092 3094 3095 3095 3094 3094 3093 3092 3091 3090 3088 3088 3088 3087 3087 3087 3088
3108 3107 3107 3106 3106 3105 3104 3104 3103 3103 3103 3103 3103 3103 3103 3103 3103 3103 3103 3102 3102 3102 3102 3102 3102 3102 3102 3102 3102 3101 3101 3100 3100 3100 3100 3099 3099 3098 3098 3097 3097 3097 3096 3094 3093 3092 3092 3091 3090 3089 3090 3090 3091 3092 3091 3090 3090 3090 3089 3088 3088 3088 3087 3087 3087 3087 3087 3088 3089 3090 3091 3092 3093 3094 3094 3094 3093 3092 3091 3090 3089 3088 3087 3087 3086 3086 3086 3086
3107 3107 3106 3106 3105 3104 3104 3103 3103 3102 3102 3102 3102 3102 3102 3103 3103 3103 3102 3102 3102 3102 3101 3102 3101 3101 3101 3101 3101 3101 3101 3100 3100 3100 3100 3099 3099 3098 3098 3097 3097 3096 3096 3095 3094 3093 3092 3092 3092 3091 3091 3091 3092 3091 3091 3091 3090 3090 3089 3088 3087 3087 3087 3087 3087 3087 3087 3088 3089 3090 3091 3092 3093 3094 3094 3093 3092 3092 3091 3089 3088 3087 3087 3086 3085 3085 3085 3084
3105 3105 3105 3105 3104 3103 3103 3102 3102 3102 3101 3101 3101 3101 3102 3102 3102 3102 3102 3101 3101 3101 3101 3101 3100 3100 3100 3100 3100 3100 3100 3100 3100 3100 3100 3099 3099 3098 3098 3097 3097 3096 3096 3095 3094 3094 3093 3092 3093 3093 3092 3092 3092 3092 3092 3091 3091 3090 3089 3089 3088 3087 3087 3087 3087 3088 3088 3088 3089 3090 3091 3092 3093 3093 3093 3093 3092 3091 3090 3089 3087 3087 3086 3085 3084 3084 3084 3084
3104 3103 3103 3104 3103 3102 3102 3101 3100 3101 3100 3100 3100 3101 3101 3101 3101 3101 3101 3101 3100 3100 3100 3100 3100 3100 3100 3100 3099 3099 3099 3099 3099 3099 3099 3099 3098 3098 3098 3097 3097 3096 3096 3095 3095 3094 3094 3093 3093 3093 3093 3093 3093 3092 3092 3092 3091 3091 3090 3089 3088 3088 3088 3088 3088 3088 3088 3089 3090 3090 3091 3092 3092 3092 3092 3092 3092 3091 3089 3088 3087 3086 3085 3085 3084 3083 3083 3082
3102 3102 3102 3102 3102 3101 3100 3100 3099 3100 3100 3099 3099 3100 3100 3100 3100 3100 3100 3100 3099 3099 3099 3099 3099 3099 3099 3099 3099 3098 3098 3098 3098 3098 3098 3098 3098 3098 3098 3097 3097 3097 3096 3096 3095 3095 3094 3094 3094 3094 3094 3093 3093 3093 3093 3092 3092 3091 3090 3090 3089 3088 3088 3088 3088 3088 3088 3089 3090 3091 3091 3092 3092 3092 3092 3091 3091 3090 3089 3087 3087 3086 3085 3084 3083 3082 3082 3081
3100 3100 3101 3101 3101 3100 3099 3099 3099 3099 3099 3099 3099 3099 3099 3100 3099 3099 3099 3098 3097 3097 3098 3098 3098 3098 3098 3098 3097 3097 3097 3097 3097 3097 3097 3097 3097 3097 3097 3097 3097 3097 3097 3096 3095 3095 3094 3094 3094 3094 3094 3093 3093 3093 3093 3093 3092 3091 3091 3090 3089 3089 3089 3088 3088 3089 3089 3089 3090 3090 3091 3091 3091 3091 3091 3090 3090 3090 3088 3086 3086 3085 3084 3083 3082 3081 3080 3080
3098 3099 3099 3100 3099 3099 3098 3098 3098 3098 3098 3098 3098 3098 3098 3099 3098 3098 3098 3097 3097 3097 3097 3097 3097 3097 3097 3096 3096 3096 3096 3096 3096 3096 3096 3096 3096 3096 3096 3096 3096 3097 3096 3096 3095 3095 3094 3094 3094 3094 3093 3093 3093 3093 3093 3093 3092 3091 3090 3090 3090 3089 3089 3089 3089 3089 3089 3090 3090 3090 3090 3090 3090 3090 3089 3089 3089 3088 3086 3085 3085 3084 3083 3082 3081 3080 3079 3078